Location: *
(49.3500°N, 12.6000°E)
Time: 12:29:07
(UTC+00:00)

STARLINK-76 - Pass Details

Date: 18 October 2019
Orbit: 548 x 551 km, 53.0° (Epoch: 16 November)

Event Time Altitude Azimuth Distance (km) Brightness Sun altitude
Rises 18:25:50 0° 276° (W) 2,717 8.7 -22.1°
Reaches altitude 10° 18:28:07 10° 282° (WNW) 1,824 7.4 -22.5°
Maximum altitude 18:32:10 50° 359° (N) 708 4.1 -23.1°
Enters shadow 18:32:20 49° 8° (N) 712 4.1 -23.2°
